sat.trackr.live / text

‹ back to catalog

STARLINK-2515

NORAD 48323 · 2021-036AZ

PAYLOAD ACTIVE UNKNOWN

§ Identity

Operator
Country
US
Launch date
2021-04-29
Launch site
AFETR
Launch vehicle
Mass (kg)
RCS (m²)

Purposes: comms

External: N2YO · Heavens-Above · Gunter

§ Orbital elements

Epoch: 2026-09-20T01:29:14.430048Z

Period
94.01 min
Inclination
53.1605°
Eccentricity
0.0001588
Mean motion
15.31701274 rev/d
Perigee alt
469.6 km
Apogee alt
471.8 km
Semi-major
6,848.9 km
B*
3.3170e-5
RAAN
276.4686°
Arg perigee
87.1532°
Mean anomaly
272.9651°
Rev number
29,782

§ Raw data

STARLINK-25151 48323U 21036AZ  26263.06197257  .00000664  00000+0  33170-4 0  99912 48323  53.1605 276.4686 0001588  87.1532 272.9651 15.31701274297820

JSON: /api/v1/satellites/48323 · /tle

For live sub-satellite position, see the globe view (requires WebGL).

§ Visibility from observer

Set your observer location to see the next 7 days of passes ≥ 10°. The values pass through the URL so the page stays shareable.

No JS? Fill the form by hand. The geolocation button needs JavaScript.